Hauptseite
METAR-TAF:

METAR-TAF

Flughäfen :

Bohrplattform

Ula, Norwegen

Breite: 59-06-39N, Länge: 2-50-45E, Höhe: 0 m

Beobachtung

Neuester Wetterbericht von vor 34 Minuten, um 01:50 UTC
Wind 18 kt aus Südost
Temperatur 9°C
Luftfeuchtigkeit 81%
Luftdruck 1036 hPa
Sichtweite 10 km oder mehr

METAR: ENLA 180150Z AUTO 13018KT 9999NDV BKN014/// 09/06 Q1036 W///S3

Zeit: 03:24 (02:24 UTC)


TAF: fehlend

Wetterbeobachtungen und Prognosen von mehr als 4000 Flughäfen (METAR und TAF Bericht).

Die verfügbaren Stationen werden durch gelbe und rote Markierungen auf der Karte dargestellt.

Führen Sie die Maus auf sie, um den Namen der Station zu sehen.

Darauf klicken, um die Beobachtung von Wetterbeobachtungen und Prognosen zu sehen.

Um die Karte zu ändern : klicken Sie auf den grünen Tasten mit einem schwarzen Kreuz Zum Vergrößern, auf den grünen Button mit einem Gedankenstrich zu verkleinern, oder auf die grünen Pfeile für benachbarte Karten.


METAR-TAF: